Weather History for Bennington, VT

Change the Weather History Date:

Tuesday, May 27, 2014

  Actual Average Record
Temperature  
Mean Temperature 68 °F 58 °F  
Max Temperature 83 °F 70 °F 86 °F (2011)
Min Temperature 52 °F 46 °F 33 °F (2013)
Degree Days  
Heating Degree Days 0 7  
Month to date heating degree days 220 289  
Since 1 July heating degree days 7213 7112  
Cooling Degree Days 3 0  
Month to date cooling degree days 12 0  
Year to date cooling degree days 16 3  
Growing Degree Days 17 (Base 50)    
Moisture  
Dew Point 55 °F    
Average Humidity 71    
Maximum Humidity 96    
Minimum Humidity 45    
Precipitation  
Precipitation 0.35 in 0.13 in 0.58 in (2007)
Month to date precipitation 2.24 3.08  
Year to date precipitation 12.71 14.49  
Sea Level Pressure  
Sea Level Pressure 29.82 in    
Wind  
Wind Speed 6 mph (SE)    
Max Wind Speed 23 mph    
Max Gust Speed 31 mph    
Visibility 10 miles    
Events Rain , Thunderstorm    
T = Trace of Precipitation, MM = Missing Value Source: NWS Daily Summary

Daily Weather History Graph

Daily Weather History Graph

Search for Another Location

Airport:

Trip Planner

Search our weather history database for the weather conditions in past years. The results will help you decide how hot, cold, wet, or windy it might be!

Date:

Astronomy

May. 27, 2014 Rise Set
Actual Time 5:19 AM EDT 8:20 PM EDT
Civil Twilight 4:46 AM EDT 8:54 PM EDT
Nautical Twilight 4:02 AM EDT 9:38 PM EDT
Astronomical Twilight 3:11 AM EDT 10:29 PM EDT
Moon 4:43 AM EDT (5/27) 7:18 PM EDT (5/27)
Length of Visible Light 16h 08m
Length of Day
15h 01m
Waning Crescent, 1% of the Moon is Illuminated
May 27
Waning Crescent
May 28
New
Jun 5
First Quarter
Jun 13
Full
Jun 19
Last Quarter

Hourly Weather History & Observations

Time (EDT) Temp. Heat Index Dew Point Humidity Pressure Visibility Wind Dir Wind Speed Gust Speed Precip Events Conditions
12:54 AM 57.0 °F - 53.1 °F 87% 29.86 in 10.0 mi SW 4.6 mph - N/A   Clear
2:54 AM 53.1 °F - 50.0 °F 89% 29.86 in 10.0 mi South 4.6 mph - N/A   Clear
3:54 AM 53.1 °F - 50.0 °F 89% 29.85 in 10.0 mi Calm Calm - N/A   Clear
4:54 AM 52.0 °F - 50.0 °F 93% 29.85 in 8.0 mi Calm Calm - N/A   Clear
5:54 AM 55.0 °F - 52.0 °F 89% 29.86 in 10.0 mi Calm Calm - N/A   Partly Cloudy
6:54 AM 59.0 °F - 54.0 °F 83% 29.86 in 10.0 mi Calm Calm - N/A   Mostly Cloudy
7:54 AM 62.1 °F - 57.0 °F 84% 29.87 in 10.0 mi Calm Calm - N/A   Overcast
8:54 AM 61.0 °F - 57.9 °F 90% 29.89 in 6.0 mi Calm Calm - 0.00 in Rain Light Rain
9:54 AM 64.9 °F - 59.0 °F 81% 29.87 in 10.0 mi Calm Calm - 0.01 in Rain Light Rain
10:54 AM 70.0 °F - 60.1 °F 71% 29.86 in 10.0 mi Variable 3.5 mph - 0.00 in   Mostly Cloudy
11:54 AM 75.0 °F - 57.0 °F 53% 29.83 in 10.0 mi Variable 3.5 mph - N/A   Clear
12:54 PM 77.0 °F - 57.9 °F 52% 29.81 in 10.0 mi Variable 5.8 mph - N/A   Mostly Cloudy
1:54 PM 80.1 °F 80.6 °F 57.9 °F 47% 29.79 in 10.0 mi Calm Calm - N/A   Mostly Cloudy
2:54 PM 81.0 °F 81.1 °F 57.9 °F 45% 29.77 in 10.0 mi Variable 4.6 mph - N/A   Partly Cloudy
3:54 PM 82.0 °F 82.1 °F 59.0 °F 45% 29.74 in 10.0 mi Calm Calm - N/A   Mostly Cloudy
4:54 PM 82.9 °F 83.2 °F 60.1 °F 46% 29.73 in 10.0 mi West 8.1 mph - N/A   Scattered Clouds
5:54 PM 81.0 °F 81.3 °F 59.0 °F 47% 29.71 in 10.0 mi WSW 10.4 mph - N/A   Clear
6:54 PM 79.0 °F - 60.1 °F 52% 29.72 in 10.0 mi Variable 4.6 mph - N/A   Clear
7:54 PM 64.9 °F - 55.0 °F 70% 29.75 in 10.0 mi ESE 16.1 mph 31.1 mph N/A   Scattered Clouds
8:54 PM 63.0 °F - 54.0 °F 72% 29.82 in 10.0 mi East 11.5 mph 23.0 mph N/A Thunderstorm Overcast
9:03 PM 62.1 °F - 53.1 °F 72% 29.84 in 10.0 mi East 12.7 mph 19.6 mph N/A   Overcast
9:54 PM 60.1 °F - 52.0 °F 75% 29.83 in 10.0 mi ESE 12.7 mph 24.2 mph N/A   Scattered Clouds
10:54 PM 59.0 °F - 50.0 °F 72% 29.84 in 10.0 mi East 9.2 mph 18.4 mph N/A   Overcast
11:54 PM 57.0 °F - 48.9 °F 74% 29.83 in 10.0 mi East 13.8 mph 21.9 mph 0.00 in Thunderstorm Overcast